#timestamp,LO_Frequency,Hit,StdDev 
1558609215.4,286046996.9,N
1558609235.2,286046999.2,N
1558609255.1,286046997.2,N
1558609256.0,286046997.2,N
1558609275.8,286046993.0,Y
1558609295.6,286046993.6,P
1558609315.5,286046992.1,P
1558609335.3,286046992.5,P
1558609355.2,286046986.9,Y
1558609375.9,286046985.7,P
1558609395.7,286046986.7,P
1558609415.6,286046981.6,P
1558609435.4,286046983.6,Y
1558609455.3,286046992.1,P
1558609475.1,286046990.8,P
1558609476.0,286046990.8,P
1558609495.8,286046988.5,Y
1558609515.7,286047004.3,P
1558609535.5,286047004.9,N
1558609555.4,286047005.4,N
1558609575.2,286047005.7,N
1558609595.0,286047003.5,N
1558609595.9,286047003.5,N
1558609615.8,286047004.7,N
1558609635.6,286047002.9,N
1558609655.4,286047007.2,N
1558609675.3,286047007.0,N
1558609695.1,286047006.8,N
1558609715.9,286047008.0,N
1558609735.7,286047011.7,N
1558609755.5,286047009.4,N
1558609775.4,286047010.9,N
1558609795.2,286047012.8,N
1558609815.0,286047013.2,N
1558609815.9,286047013.2,N
1558609835.8,286047015.5,Y
1558609855.6,286047007.9,P
1558609875.5,286047008.8,P
1558609895.3,286047007.5,P
1558609915.1,286047005.1,Y
1558609935.9,286046997.5,P
1558609955.7,286046992.6,N
1558609975.6,286046985.1,N
1558609995.4,286046980.8,N
1558610015.2,286046979.0,N
1558610035.1,286046982.0,N
1558610036.0,286046982.0,N
1558610055.8,286046972.6,N
1558610075.6,286046970.2,N
1558610095.5,286046969.3,N
1558610115.3,286046976.0,N
1558610135.2,286046983.5,N
1558610155.9,286046981.3,N
1558610175.7,286046982.3,N
1558610195.6,286046983.4,N
1558610215.4,286046981.0,N
1558610235.2,286046981.1,N
1558610255.1,286046981.3,N
1558610256.0,286046981.3,N
1558610275.8,286046979.1,N
1558610295.7,286046983.1,N
1558610315.5,286046983.8,N
1558610335.3,286046985.0,N
1558610355.2,286046982.1,N
1558610375.0,286046984.9,N
1558610375.9,286046984.9,N
1558610395.8,286046986.4,N
1558610415.6,286046987.9,N
1558610435.4,286046986.6,N
1558610455.3,286046985.9,N
1558610475.1,286046986.4,N
1558610495.8,286046983.7,Y
1558610515.7,286047002.4,P
1558610535.5,286047002.2,N
1558610555.4,286047003.9,N
1558610575.2,286047001.2,N
1558610595.0,286046995.4,N
1558610595.9,286046995.4,N
1558610615.8,286046991.9,N
1558610635.6,286047000.8,N
1558610655.5,286047002.7,N
1558610675.3,286047000.9,N
1558610695.1,286047000.8,N
1558610715.9,286046997.0,N
1558610735.7,286046999.2,N
1558610755.5,286046999.3,N
1558610775.4,286046996.6,N
1558610795.2,286046995.4,N
1558610815.1,286046997.0,N
1558610816.0,286046997.0,N
1558610835.8,286046997.3,N
1558610855.6,286046997.2,N
1558610875.5,286046995.1,N
1558610895.3,286046991.8,N
1558610915.1,286046990.3,N
1558610935.9,286046989.1,N
1558610955.7,286046986.3,N
1558610975.6,286046984.4,N
1558610995.4,286046976.1,Y
1558611015.2,286046975.6,P
1558611035.1,286046971.5,N
1558611036.0,286046971.5,N
1558611055.8,286046968.8,Y
1558611075.7,286046990.2,P
1558611095.5,286046993.5,N
1558611115.3,286046996.2,N
1558611135.2,286046997.7,N
1558611155.0,286046998.4,N
1558611155.9,286046998.4,N
1558611175.7,286046996.5,N
1558611195.6,286046990.9,N
1558611215.4,286046983.0,N
1558611235.3,286046984.2,N
1558611255.1,286046991.5,N
1558611275.8,286046988.7,N
1558611295.7,286046990.0,N
1558611315.5,286046982.5,N
1558611335.4,286046981.5,Y
1558611355.2,286046988.5,P
1558611375.0,286046990.3,P
1558611375.9,286046990.3,P
1558611395.8,286046987.9,Y
1558611415.6,286046987.0,P
1558611435.5,286046988.6,P
1558611455.3,286046994.4,P
1558611475.1,286046997.9,N
1558611495.9,286046998.6,N
1558611515.7,286047001.5,N
1558611535.5,286047006.4,N
1558611555.4,286047006.6,N
1558611575.2,286047009.6,N
1558611595.1,286047012.1,N
1558611596.0,286047012.1,N
1558611615.8,286047013.3,N
1558611635.6,286047012.7,N
1558611655.5,286047013.7,N
1558611675.3,286047013.6,N
1558611695.1,286047011.3,N
1558611715.9,286047011.6,N
1558611735.7,286047009.5,N
1558611755.6,286047013.7,N
1558611775.4,286047009.7,N
1558611795.2,286047012.4,N
1558611815.1,286047012.2,N
1558611816.0,286047012.2,N
1558611835.8,286047012.1,N
1558611855.7,286047009.8,N
1558611875.5,286047009.6,N
1558611895.3,286047009.7,N
1558611945.2,286047000.2,E
1558611955.1,286047002.2,N
1558611975.9,286047000.9,P
1558611995.7,286047002.5,P
1558612015.5,286047006.0,Y
1558612035.4,286047003.0,P
1558612055.2,286047004.2,P
1558612075.0,286047004.4,P
1558612076.0,286047004.4,Y
1558612095.8,286046997.3,P
1558612115.6,286046996.8,N
1558612135.5,286046997.7,N
1558612155.3,286046996.1,N
1558612175.1,286046996.1,N
1558612195.9,286046996.4,N
1558612215.7,286046986.4,Y
1558612235.6,286046981.0,P
1558612255.4,286046972.1,P
1558612275.2,286046970.2,N
1558612295.1,286046968.9,N
1558612296.0,286046968.9,N
1558612315.8,286046964.9,Y
1558612335.7,286046982.8,P
1558612355.5,286046982.0,P
1558612375.3,286046978.2,P
1558612395.2,286046976.2,Y
1558612415.0,286046999.5,P
1558612415.9,286046999.5,N
1558612435.8,286046995.2,N
1558612455.6,286046995.5,N
1558612475.4,286046994.6,N
1558612495.3,286046998.0,N
1558612515.1,286046995.0,N
1558612535.9,286046997.6,N
1558612555.7,286046993.7,N
1558612575.5,286046991.8,N
1558612595.4,286046998.9,N
1558612615.2,286047007.0,N
1558612635.0,286047007.8,N
1558612635.9,286047007.8,N
1558612655.8,286047013.6,N
1558612675.6,286047014.7,N
1558612695.5,286047013.0,N
1558612715.3,286047014.8,N
1558612735.1,286047017.6,N
1558612755.9,286047019.7,N
1558612775.7,286047019.7,N
1558612795.6,286047021.8,N
